Showing default

OPS 4682 (SNAPSHOT), 1314

Orbit data source: Space-Track

OPS 4682 (SNAPSHOT), 1314 is an American payload satellite in LEO that was launched on Sat, 03 Apr 1965 UTC via an ATLAS SLV-3 AGENA D launch vehicle from the Air Force Western Test Range (AFWTR). Payload-class satellites include a variety of spacecraft equipped with specific instruments for various scientific and technological missions. These include communications satellites like Starlink; space stations such as the ISS; scientific satellites like the Hubble; Earth observation satellites from companies like Planet Labs, Umbra, and HawkEye 360; GPS; miniature CubeSats for education and research; and military/defense satellites.

Loading next visibility...
Identifier
1314, 1965-027A
Orbit
LEO
Country
Flag of USUS
Related business
Manufacturer
RCA/East Windsor
Mission
Spacecraft
Bus & Motor
SNAP 10 REACTOR, Unknown motor
Mass
2,386 kg wet, 422 kg dry
Launch date (UTC)
1965-04-03 (61 years ago)
Launch vehicle
ATLAS SLV-3 AGENA D
Launch site
Air Force Western Test Range (AFWTR)
Object type
Payload
Rocket body
Debris
Shape & HBR
Unknown shape, 2.3 m
Radar Cross Section
Large (>1 m²)

Expand to show TLE details & history
Last TLE update: 18 hours ago

TLE from 18 hours ago
0 OPS 4682 (SNAPSHOT)
1 01314U 65027A   25292.69150545  .00000048  00000-0  15099-3 0  9993
2 01314  90.2438   1.0079 0029888 194.8234 333.1712 12.91799047599978
Epoch: 2025-10-19T16:35Z
TLE epoch observation values (Epoch: 2025-10-19T16:35:46.070Z)
Latitude
12.11884°
Longitude
-96.2865°
Altitude
1,276.056 km
Speed
7.228 km/s
True Right ascension
12h 04m 14s
True Declination
12° 03' 12"
Sunlit
Object was in daylight at epoch
Visualization orbit readout
Latitude
Unknown
Longitude
Unknown
Altitude
Unknown
Speed
Unknown
Apparent Right ascension
Unknown
Apparent Declination
Unknown
Sunlit
N/A
Visualization observer readout
Local Sidereal Time
05:55:44
Azimuth
Unknown
Elevation
Unknown
Doppler factor
Unknown
Orbital elements
Apogee altitude
1,314.451 km
Perigee altitude
1,268.604 km
Semi-major axis
7,669.664 km
Eccentricity
0.00299
Inclination
90.2438°
RAAN
1.0079°
Arg. of periapsis
194.8234°
True anomaly
333.01611°
Mean anomaly
333.1712°
Eccentric anomaly
333.09371°
Mean motion
3.23131 °/min
Orbital period
111.41 mins
BSTAR
0.00015099
Loading maneuver chart data...
Computing Atmospheric mass density...
Loading historical data...
Loading historical data...
Loading historical data...
Loading historical data...
Loading historical data...
Loading historical data...
Loading historical data...

Documentation

Showing up to 5 results
|